AVA2202 SKRG-SKCC

Flight info

Callsign AVA2202
Flight time N/A
Altitude 23000
Route DIPRA1C DIPRA W26 PIE W34 ESNUT ESNUT2A
Aircraft A320/M-SDE3FGHIRWY/LB1

Departure

Time N/A
Airport Jose Maria Córdova International Airport (SKRG)

Arrival

Time 2026-04-21 22:48
Airport Camilo Daza International Airport (SKCC)
Time Latitude Longitude Altitude Speed Heading
2026-04-21 22:16 6.51268 -74.76585 23058 ft 444 kts 65°
2026-04-21 22:16 6.52555 -74.73785 23050 ft 444 kts 65°
2026-04-21 22:16 6.53841 -74.70988 23042 ft 445 kts 65°
2026-04-21 22:17 6.55137 -74.68169 23033 ft 444 kts 65°
2026-04-21 22:17 6.56441 -74.65331 23026 ft 445 kts 65°
2026-04-21 22:17 6.57747 -74.62489 23017 ft 445 kts 65°
2026-04-21 22:17 6.59032 -74.59690 23005 ft 445 kts 65°
2026-04-21 22:18 6.60329 -74.56867 22994 ft 445 kts 65°
2026-04-21 22:18 6.61694 -74.54075 22988 ft 444 kts 62°
2026-04-21 22:18 6.63183 -74.51347 22980 ft 444 kts 61°
2026-04-21 22:18 6.64694 -74.48649 22971 ft 444 kts 60°
2026-04-21 22:19 6.66226 -74.45926 22963 ft 445 kts 60°
2026-04-21 22:19 6.67745 -74.43224 22959 ft 444 kts 60°
2026-04-21 22:19 6.69251 -74.40546 22954 ft 444 kts 60°
2026-04-21 22:19 6.70769 -74.37843 22949 ft 443 kts 60°
2026-04-21 22:20 6.72294 -74.35121 22940 ft 444 kts 60°
2026-04-21 22:20 6.73804 -74.32420 22932 ft 444 kts 60°
2026-04-21 22:20 6.75308 -74.29720 22924 ft 445 kts 60°
2026-04-21 22:20 6.76831 -74.26990 22920 ft 445 kts 60°
2026-04-21 22:21 6.78335 -74.24298 22907 ft 445 kts 60°
2026-04-21 22:21 6.79866 -74.21563 22906 ft 445 kts 60°
2026-04-21 22:21 6.81390 -74.18841 22906 ft 445 kts 60°
2026-04-21 22:21 6.82908 -74.16129 22906 ft 446 kts 60°
2026-04-21 22:22 6.84412 -74.13445 22904 ft 446 kts 60°
2026-04-21 22:22 6.85811 -74.10947 22909 ft 447 kts 60°
2026-04-21 22:22 6.87333 -74.08230 22905 ft 447 kts 60°
2026-04-21 22:22 6.88856 -74.05511 22903 ft 448 kts 60°
2026-04-21 22:23 6.90398 -74.02756 22899 ft 448 kts 60°
2026-04-21 22:23 6.91927 -74.00027 22893 ft 448 kts 60°
2026-04-21 22:23 6.93458 -73.97292 22886 ft 447 kts 60°
2026-04-21 22:23 6.94982 -73.94572 22892 ft 447 kts 60°
2026-04-21 22:24 6.96499 -73.91863 22891 ft 447 kts 60°
2026-04-21 22:24 6.98035 -73.89114 22887 ft 447 kts 60°
2026-04-21 22:24 6.99560 -73.86385 22890 ft 447 kts 60°
2026-04-21 22:24 7.01001 -73.83645 22884 ft 447 kts 66°
2026-04-21 22:25 7.01892 -73.80667 22886 ft 448 kts 79°
2026-04-21 22:25 7.02095 -73.78903 22888 ft 448 kts 87°
2026-04-21 22:25 7.01912 -73.75806 22890 ft 449 kts 99°
2026-04-21 22:25 7.01299 -73.72686 22902 ft 450 kts 101°
2026-04-21 22:26 7.00647 -73.69624 22914 ft 449 kts 101°
2026-04-21 22:26 7.00000 -73.66574 22931 ft 449 kts 101°
2026-04-21 22:26 6.99362 -73.63511 22935 ft 448 kts 101°
2026-04-21 22:26 6.98738 -73.60460 22954 ft 447 kts 101°
2026-04-21 22:27 6.98112 -73.57370 22973 ft 446 kts 101°
2026-04-21 22:27 6.97501 -73.54337 22999 ft 446 kts 101°
2026-04-21 22:27 6.96880 -73.51260 23024 ft 446 kts 101°
2026-04-21 22:27 6.96260 -73.48199 23033 ft 447 kts 101°
2026-04-21 22:28 6.95634 -73.45151 23047 ft 447 kts 101°
2026-04-21 22:28 6.95007 -73.42090 23074 ft 447 kts 101°
2026-04-21 22:28 6.94388 -73.39049 23097 ft 447 kts 101°
2026-04-21 22:28 6.93759 -73.35952 23108 ft 447 kts 101°
2026-04-21 22:29 6.93142 -73.32899 23116 ft 447 kts 101°
2026-04-21 22:29 6.92524 -73.29830 23139 ft 446 kts 101°
2026-04-21 22:29 6.91917 -73.26807 23155 ft 447 kts 101°
2026-04-21 22:29 6.91297 -73.23732 23154 ft 447 kts 101°
2026-04-21 22:30 6.90675 -73.20657 23164 ft 447 kts 101°
2026-04-21 22:30 6.90050 -73.17584 23195 ft 447 kts 101°
2026-04-21 22:30 6.89719 -73.14494 23193 ft 445 kts 87°
2026-04-21 22:30 6.90240 -73.11490 23215 ft 443 kts 71°
2026-04-21 22:31 6.91596 -73.08696 23235 ft 441 kts 55°
2026-04-21 22:31 6.93630 -73.06421 23254 ft 441 kts 40°
2026-04-21 22:31 6.96204 -73.04736 23265 ft 441 kts 28°
2026-04-21 22:31 6.98917 -73.03271 23253 ft 442 kts 28°
2026-04-21 22:32 7.01649 -73.01811 23250 ft 441 kts 28°
2026-04-21 22:32 7.04376 -73.00345 23250 ft 442 kts 28°
2026-04-21 22:32 7.07061 -72.98892 23253 ft 442 kts 28°
2026-04-21 22:32 7.09770 -72.97417 23255 ft 442 kts 28°
2026-04-21 22:33 7.12519 -72.95921 23273 ft 442 kts 28°
2026-04-21 22:33 7.15235 -72.94443 23284 ft 442 kts 28°
2026-04-21 22:33 7.17911 -72.92985 23294 ft 441 kts 28°
2026-04-21 22:33 7.20619 -72.91505 23005 ft 437 kts 28°
2026-04-21 22:34 7.23273 -72.90053 22086 ft 438 kts 28°
2026-04-21 22:34 7.25956 -72.88582 20759 ft 438 kts 28°
2026-04-21 22:34 7.28590 -72.87137 19464 ft 433 kts 28°
2026-04-21 22:34 7.31170 -72.85721 18530 ft 418 kts 28°
2026-04-21 22:35 7.33692 -72.84337 17656 ft 403 kts 28°
2026-04-21 22:35 7.36116 -72.83008 16835 ft 390 kts 28°
2026-04-21 22:35 7.38455 -72.81722 16053 ft 376 kts 28°
2026-04-21 22:35 7.40699 -72.80490 15497 ft 358 kts 28°
2026-04-21 22:36 7.44857 -72.78210 14506 ft 326 kts 27°
2026-04-21 22:36 7.46821 -72.77131 14054 ft 311 kts 28°
2026-04-21 22:36 7.48701 -72.76157 13583 ft 299 kts 24°
2026-04-21 22:37 7.50610 -72.75354 13134 ft 291 kts 19°
2026-04-21 22:37 7.52516 -72.74740 12762 ft 288 kts 14°
2026-04-21 22:37 7.54478 -72.74277 12440 ft 285 kts 11°
2026-04-21 22:37 7.56384 -72.73883 12291 ft 274 kts 11°
2026-04-21 22:38 7.58225 -72.73506 12130 ft 263 kts 11°
2026-04-21 22:38 7.60006 -72.73140 11983 ft 254 kts 11°
2026-04-21 22:38 7.61729 -72.72785 11880 ft 253 kts 11°
2026-04-21 22:38 7.63435 -72.72433 11795 ft 251 kts 11°
2026-04-21 22:39 7.65179 -72.72071 11695 ft 252 kts 11°
2026-04-21 22:39 7.66888 -72.71716 11625 ft 251 kts 11°
2026-04-21 22:39 7.68614 -72.71358 11542 ft 252 kts 11°
2026-04-21 22:39 7.70324 -72.71004 11454 ft 252 kts 11°
2026-04-21 22:40 7.72050 -72.70645 11393 ft 252 kts 11°
2026-04-21 22:40 7.73776 -72.70287 11347 ft 251 kts 11°
2026-04-21 22:40 7.75486 -72.69933 11288 ft 251 kts 11°
2026-04-21 22:40 7.77216 -72.69574 11021 ft 254 kts 11°
2026-04-21 22:41 7.78965 -72.69210 10607 ft 258 kts 11°
2026-04-21 22:41 7.80724 -72.68845 10190 ft 261 kts 11°
2026-04-21 22:41 7.82536 -72.68469 9766 ft 264 kts 11°
2026-04-21 22:41 7.84336 -72.68095 9338 ft 267 kts 12°
2026-04-21 22:42 7.86175 -72.67713 8878 ft 270 kts 12°
2026-04-21 22:42 7.87993 -72.67335 8456 ft 265 kts 12°
2026-04-21 22:42 7.89805 -72.66958 8038 ft 266 kts 12°
2026-04-21 22:42 7.91648 -72.66574 7625 ft 263 kts 12°
2026-04-21 22:43 7.93438 -72.66203 7221 ft 264 kts 12°
2026-04-21 22:43 7.95234 -72.65829 6785 ft 262 kts 12°
2026-04-21 22:43 7.97020 -72.65458 6336 ft 265 kts 12°
2026-04-21 22:43 7.98853 -72.65077 5885 ft 269 kts 12°
2026-04-21 22:44 8.00710 -72.64668 5389 ft 274 kts 18°
2026-04-21 22:44 8.02334 -72.63673 4877 ft 276 kts 51°
2026-04-21 22:44 8.03091 -72.61955 4541 ft 268 kts 85°
2026-04-21 22:44 8.02713 -72.60193 4354 ft 252 kts 120°
2026-04-21 22:45 8.01753 -72.58742 4048 ft 249 kts 118°
2026-04-21 22:45 8.01073 -72.57187 3709 ft 234 kts 107°
2026-04-21 22:45 8.00647 -72.55640 3408 ft 223 kts 102°
2026-04-21 22:45 8.00323 -72.54141 3127 ft 214 kts 100°
2026-04-21 22:46 8.00044 -72.52709 2893 ft 203 kts 100°
2026-04-21 22:46 7.99751 -72.51359 2676 ft 189 kts 109°
2026-04-21 22:46 7.99016 -72.50316 2420 ft 179 kts 142°
2026-04-21 22:46 7.97962 -72.49833 2277 ft 159 kts 169°
2026-04-21 22:47 7.96878 -72.49858 1919 ft 157 kts 194°
2026-04-21 22:47 7.95862 -72.50224 1591 ft 151 kts 202°
2026-04-21 22:47 7.94898 -72.50534 1368 ft 141 kts 194°
2026-04-21 22:47 7.93957 -72.50781 1198 ft 140 kts 198°
2026-04-21 22:48 7.93030 -72.51077 1066 ft 136 kts 198°
2026-04-21 22:48 7.92372 -72.51276 1069 ft 55 kts 194°
2026-04-21 22:48 7.92157 -72.51347 1072 ft 19 kts 205°
2026-04-21 22:48 7.92126 -72.51351 1072 ft 2 kts 78°
2026-04-21 22:49 7.92149 -72.51337 1072 ft 5 kts 22°
2026-04-21 22:49 7.92192 -72.51324 1071 ft 7 kts
2026-04-21 22:49 7.92248 -72.51314 1070 ft 9 kts 16°
2026-04-21 22:49 7.92307 -72.51296 1070 ft 10 kts 18°
2026-04-21 22:50 7.92386 -72.51270 1068 ft 12 kts 16°
2026-04-21 22:50 7.92476 -72.51243 1067 ft 14 kts 17°
2026-04-21 22:50 7.92575 -72.51213 1066 ft 15 kts 17°
2026-04-21 22:50 7.92668 -72.51186 1065 ft 8 kts 15°
2026-04-21 22:51 7.92712 -72.51160 1064 ft 7 kts 41°
2026-04-21 22:51 7.92739 -72.51109 1064 ft 9 kts 64°
2026-04-21 22:51 7.92757 -72.51074 1063 ft 0 kts 62°
2026-04-21 22:51 7.92764 -72.51061 1063 ft 3 kts 62°
2026-04-21 22:52 7.92777 -72.51035 1063 ft 5 kts 62°
2026-04-21 22:52 7.92788 -72.50993 1062 ft 6 kts 76°
2026-04-21 22:52 7.92811 -72.50944 1061 ft 6 kts 61°
2026-04-21 22:52 7.92829 -72.50915 1060 ft 5 kts 46°
2026-04-21 22:53 7.92863 -72.50895 1059 ft 4 kts 27°
2026-04-21 22:53 7.92875 -72.50874 1059 ft 4 kts 107°
2026-04-21 22:53 7.92860 -72.50840 1059 ft 5 kts 117°
2026-04-21 22:53 7.92848 -72.50816 1058 ft 2 kts 127°
2026-04-21 22:54 7.92833 -72.50813 1058 ft 2 kts 193°
2026-04-21 22:54 7.92817 -72.50819 1059 ft 2 kts 205°
2026-04-21 22:54 7.92802 -72.50826 1059 ft 2 kts 206°
2026-04-21 22:54 7.92791 -72.50832 1059 ft 1 kts 206°
2026-04-21 22:55 7.92787 -72.50833 1059 ft 0 kts 206°